Time,TemperatureF,DewpointF,PressureIn,WindDirection,WindDirectionDegrees,WindSpeedMPH,WindSpeedGustMPH,Humidity,HourlyPrecipIn,Conditions,Clouds,dailyrainin,SoftwareType,DateUTC
2013-10-23 00:01:00,33.4,27.6,30.00,North,350,0.0,1.0,79,0.00,,---,0.00,VWS V14.01,2013-10-23 05:01:00,
2013-10-23 00:06:00,33.2,27.4,30.00,North,359,1.0,6.0,79,0.00,,---,0.00,VWS V14.01,2013-10-23 05:06:00,
2013-10-23 00:11:00,33.2,27.7,30.00,North,0,3.0,3.0,80,0.00,,---,0.00,VWS V14.01,2013-10-23 05:11:00,
2013-10-23 00:16:00,33.2,27.7,30.00,North,0,1.0,6.0,80,0.00,,---,0.00,VWS V14.01,2013-10-23 05:16:00,
2013-10-23 00:21:00,33.2,27.7,30.00,North,359,2.0,2.0,80,0.00,,---,0.00,VWS V14.01,2013-10-23 05:21:00,
2013-10-23 00:26:00,33.2,27.7,30.00,North,353,0.0,6.0,80,0.00,,---,0.00,VWS V14.01,2013-10-23 05:26:00,
2013-10-23 00:31:00,33.2,27.7,29.99,North,359,1.0,2.0,80,0.00,,---,0.00,VWS V14.01,2013-10-23 05:31:00,
2013-10-23 00:36:00,33.1,27.6,29.99,North,0,0.0,3.0,80,0.00,,---,0.00,VWS V14.01,2013-10-23 05:36:00,
2013-10-23 00:41:00,33.1,27.6,29.99,North,0,1.0,2.0,80,0.00,,---,0.00,VWS V14.01,2013-10-23 05:41:00,
2013-10-23 00:46:00,33.1,27.6,29.99,North,359,1.0,2.0,80,0.00,,---,0.00,VWS V14.01,2013-10-23 05:46:00,
2013-10-23 00:51:00,32.9,27.7,29.99,North,359,0.0,0.0,81,0.00,,---,0.00,VWS V14.01,2013-10-23 05:51:00,
2013-10-23 00:55:00,32.9,27.7,29.99,North,359,1.0,2.0,81,0.00,,---,0.00,VWS V14.01,2013-10-23 05:55:00,
2013-10-23 01:00:00,32.8,27.6,29.99,North,0,0.0,0.0,81,0.00,,---,0.00,VWS V14.01,2013-10-23 06:00:00,
2013-10-23 01:05:00,32.8,27.9,29.99,North,0,2.0,3.0,82,0.00,,---,0.00,VWS V14.01,2013-10-23 06:05:00,
2013-10-23 01:10:00,32.8,27.9,29.99,North,357,1.0,1.0,82,0.00,,---,0.00,VWS V14.01,2013-10-23 06:10:00,
2013-10-23 01:15:00,32.8,27.9,29.99,North,1,0.0,3.0,82,0.00,,---,0.00,VWS V14.01,2013-10-23 06:15:00,
2013-10-23 01:21:00,32.7,28.1,29.99,North,0,1.0,1.0,83,0.00,,---,0.00,VWS V14.01,2013-10-23 06:21:00,
2013-10-23 01:26:00,32.7,28.1,29.99,North,359,2.0,2.0,83,0.00,,---,0.00,VWS V14.01,2013-10-23 06:26:00,
2013-10-23 01:31:00,32.7,28.1,29.99,North,0,0.0,1.0,83,0.00,,---,0.00,VWS V14.01,2013-10-23 06:31:00,
2013-10-23 01:36:00,32.7,28.1,29.99,North,354,3.0,4.0,83,0.00,,---,0.00,VWS V14.01,2013-10-23 06:36:00,
2013-10-23 01:41:00,32.7,28.1,29.99,North,6,1.0,1.0,83,0.00,,---,0.00,VWS V14.01,2013-10-23 06:41:00,
2013-10-23 01:45:00,32.7,28.1,29.99,North,1,0.0,3.0,83,0.00,,---,0.00,VWS V14.01,2013-10-23 06:45:00,
2013-10-23 02:00:00,32.5,28.2,29.99,North,359,1.0,1.0,84,0.00,,---,0.00,VWS V14.01,2013-10-23 07:00:00,
2013-10-23 02:05:00,32.5,28.2,29.99,North,359,1.0,2.0,84,0.00,,---,0.00,VWS V14.01,2013-10-23 07:05:00,
2013-10-23 02:10:00,32.5,28.2,29.99,North,359,0.0,0.0,84,0.00,,---,0.00,VWS V14.01,2013-10-23 07:10:00,
2013-10-23 02:15:00,32.5,28.2,29.99,NNE,16,1.0,5.0,84,0.00,,---,0.00,VWS V14.01,2013-10-23 07:15:00,
2013-10-23 02:20:00,32.5,28.2,29.99,North,0,2.0,3.0,84,0.00,,---,0.00,VWS V14.01,2013-10-23 07:20:00,
2013-10-23 02:25:00,32.5,27.9,29.99,North,0,2.0,5.0,83,0.00,,---,0.00,VWS V14.01,2013-10-23 07:25:00,
2013-10-23 02:30:00,32.5,27.9,29.99,North,357,1.0,2.0,83,0.00,,---,0.00,VWS V14.01,2013-10-23 07:30:00,
2013-10-23 02:35:00,32.5,27.9,29.99,North,1,3.0,5.0,83,0.00,,---,0.00,VWS V14.01,2013-10-23 07:35:00,
2013-10-23 02:40:00,32.5,27.9,29.99,NNE,13,2.0,2.0,83,0.00,,---,0.00,VWS V14.01,2013-10-23 07:40:00,
2013-10-23 02:45:00,32.5,27.9,29.99,North,353,1.0,6.0,83,0.00,,---,0.00,VWS V14.01,2013-10-23 07:45:00,
2013-10-23 02:50:00,32.5,27.9,29.99,North,353,0.0,0.0,83,0.00,,---,0.00,VWS V14.01,2013-10-23 07:50:00,
2013-10-23 02:55:00,32.4,27.8,29.99,North,0,2.0,5.0,83,0.00,,---,0.00,VWS V14.01,2013-10-23 07:55:00,
2013-10-23 03:00:00,32.4,27.8,29.99,North,0,4.0,4.0,83,0.00,,---,0.00,VWS V14.01,2013-10-23 08:00:00,
2013-10-23 03:05:00,32.2,27.6,29.99,North,356,2.0,5.0,83,0.00,,---,0.00,VWS V14.01,2013-10-23 08:05:00,
2013-10-23 03:10:00,32.1,27.5,29.99,North,359,2.0,5.0,83,0.00,,---,0.00,VWS V14.01,2013-10-23 08:10:00,
2013-10-23 03:15:00,32.1,27.5,29.99,North,0,0.0,4.0,83,0.00,,---,0.00,VWS V14.01,2013-10-23 08:15:00,
2013-10-23 03:20:00,32.1,27.5,29.99,North,0,0.0,5.0,83,0.00,,---,0.00,VWS V14.01,2013-10-23 08:20:00,
2013-10-23 03:25:00,31.9,27.6,29.99,North,0,1.0,3.0,84,0.00,,---,0.00,VWS V14.01,2013-10-23 08:25:00,
2013-10-23 03:30:00,31.8,27.5,29.98,North,0,2.0,6.0,84,0.00,,---,0.00,VWS V14.01,2013-10-23 08:30:00,
2013-10-23 03:35:00,31.8,27.5,29.98,North,0,1.0,6.0,84,0.00,,---,0.00,VWS V14.01,2013-10-23 08:35:00,
2013-10-23 03:40:00,31.6,27.3,29.98,North,359,0.0,6.0,84,0.00,,---,0.00,VWS V14.01,2013-10-23 08:40:00,
2013-10-23 03:45:00,31.5,27.2,29.98,North,359,3.0,5.0,84,0.00,,---,0.00,VWS V14.01,2013-10-23 08:45:00,
2013-10-23 03:50:00,31.5,27.2,29.98,North,0,4.0,6.0,84,0.00,,---,0.00,VWS V14.01,2013-10-23 08:50:00,
2013-10-23 03:55:00,31.3,27.3,29.98,North,357,1.0,5.0,85,0.00,,---,0.00,VWS V14.01,2013-10-23 08:55:00,
2013-10-23 04:00:00,31.2,27.2,29.98,North,359,0.0,5.0,85,0.00,,---,0.00,VWS V14.01,2013-10-23 09:00:00,
2013-10-23 04:05:00,31.0,27.0,29.98,North,354,1.0,5.0,85,0.00,,---,0.00,VWS V14.01,2013-10-23 09:05:00,
2013-10-23 04:10:00,31.0,27.0,29.98,North,359,0.0,5.0,85,0.00,,---,0.00,VWS V14.01,2013-10-23 09:10:00,
2013-10-23 04:15:00,31.0,27.0,29.98,NNW,332,2.0,5.0,85,0.00,,---,0.00,VWS V14.01,2013-10-23 09:15:00,
2013-10-23 04:20:00,31.2,27.2,29.98,North,1,3.0,5.0,85,0.00,,---,0.00,VWS V14.01,2013-10-23 09:20:00,
2013-10-23 04:25:00,31.0,27.0,29.98,North,359,2.0,6.0,85,0.00,,---,0.00,VWS V14.01,2013-10-23 09:25:00,
2013-10-23 04:30:00,31.0,27.0,29.98,North,352,5.0,7.0,85,0.00,,---,0.00,VWS V14.01,2013-10-23 09:30:00,
2013-10-23 04:35:00,31.0,27.3,29.98,North,0,2.0,3.0,86,0.00,,---,0.00,VWS V14.01,2013-10-23 09:35:00,
2013-10-23 04:40:00,31.0,27.3,29.98,NNW,342,2.0,7.0,86,0.00,,---,0.00,VWS V14.01,2013-10-23 09:40:00,
2013-10-23 04:45:00,31.0,27.3,29.98,North,354,0.0,6.0,86,0.00,,---,0.00,VWS V14.01,2013-10-23 09:45:00,
2013-10-23 04:50:00,31.0,27.3,29.98,North,356,1.0,6.0,86,0.00,,---,0.00,VWS V14.01,2013-10-23 09:50:00,
2013-10-23 04:55:00,31.0,27.6,29.98,North,0,2.0,6.0,87,0.00,,---,0.00,VWS V14.01,2013-10-23 09:55:00,
2013-10-23 05:00:00,31.0,27.6,29.98,North,359,1.0,6.0,87,0.00,,---,0.00,VWS V14.01,2013-10-23 10:00:00,
2013-10-23 05:05:00,31.2,27.5,29.98,NNW,340,7.0,7.0,86,0.00,,---,0.00,VWS V14.01,2013-10-23 10:05:00,
2013-10-23 05:10:00,31.2,27.5,29.98,North,0,2.0,7.0,86,0.00,,---,0.00,VWS V14.01,2013-10-23 10:10:00,
2013-10-23 05:15:00,31.0,27.3,29.98,North,359,3.0,6.0,86,0.00,,---,0.00,VWS V14.01,2013-10-23 10:15:00,
2013-10-23 05:20:00,31.0,27.6,29.98,North,3,1.0,6.0,87,0.00,,---,0.00,VWS V14.01,2013-10-23 10:20:00,
2013-10-23 05:25:00,30.9,27.5,29.98,North,4,2.0,7.0,87,0.00,,---,0.00,VWS V14.01,2013-10-23 10:25:00,
2013-10-23 05:30:00,30.7,27.3,29.98,North,0,2.0,7.0,87,0.00,,---,0.00,VWS V14.01,2013-10-23 10:30:00,
2013-10-23 05:35:00,30.6,27.2,29.98,North,359,4.0,5.0,87,0.00,,---,0.00,VWS V14.01,2013-10-23 10:35:00,
2013-10-23 05:40:00,30.6,27.5,29.98,North,359,4.0,5.0,88,0.00,,---,0.00,VWS V14.01,2013-10-23 10:40:00,
2013-10-23 05:45:00,30.7,27.6,29.98,North,0,0.0,6.0,88,0.00,,---,0.00,VWS V14.01,2013-10-23 10:45:00,
2013-10-23 05:50:00,30.7,27.6,29.98,North,359,0.0,6.0,88,0.00,,---,0.00,VWS V14.01,2013-10-23 10:50:00,
2013-10-23 05:55:00,30.7,27.6,29.98,North,354,1.0,3.0,88,0.00,,---,0.00,VWS V14.01,2013-10-23 10:55:00,
2013-10-23 06:00:00,30.6,27.5,29.98,North,0,0.0,3.0,88,0.00,,---,0.00,VWS V14.01,2013-10-23 11:00:00,
2013-10-23 06:05:00,30.6,27.8,29.98,North,0,2.0,5.0,89,0.00,,---,0.00,VWS V14.01,2013-10-23 11:05:00,
2013-10-23 06:10:00,30.7,27.9,29.98,North,10,3.0,5.0,89,0.00,,---,0.00,VWS V14.01,2013-10-23 11:10:00,
2013-10-23 06:15:00,30.7,27.9,29.98,North,359,1.0,5.0,89,0.00,,---,0.00,VWS V14.01,2013-10-23 11:15:00,
2013-10-23 06:20:00,30.7,27.9,29.98,North,0,1.0,5.0,89,0.00,,---,0.00,VWS V14.01,2013-10-23 11:20:00,
2013-10-23 06:24:00,30.9,28.0,29.98,North,7,3.0,7.0,89,0.00,,---,0.00,VWS V14.01,2013-10-23 11:24:00,
2013-10-23 06:29:00,30.9,28.0,29.98,North,1,0.0,7.0,89,0.00,,---,0.00,VWS V14.01,2013-10-23 11:29:00,
2013-10-23 06:34:00,30.9,28.0,29.98,NNE,13,1.0,3.0,89,0.00,,---,0.00,VWS V14.01,2013-10-23 11:34:00,
2013-10-23 06:39:00,30.9,28.0,29.98,North,6,0.0,5.0,89,0.00,,---,0.00,VWS V14.01,2013-10-23 11:39:00,
2013-10-23 06:44:00,30.9,28.0,29.98,North,0,1.0,5.0,89,0.00,,---,0.00,VWS V14.01,2013-10-23 11:44:00,
2013-10-23 06:49:00,30.9,28.0,29.98,NNE,23,1.0,6.0,89,0.00,,---,0.00,VWS V14.01,2013-10-23 11:49:00,
2013-10-23 06:54:00,30.9,28.0,29.98,North,7,1.0,6.0,89,0.00,,---,0.00,VWS V14.01,2013-10-23 11:54:00,
2013-10-23 06:59:00,30.9,28.0,29.98,NNE,27,1.0,6.0,89,0.00,,---,0.00,VWS V14.01,2013-10-23 11:59:00,
2013-10-23 07:04:00,30.9,28.0,29.98,NNE,23,2.0,4.0,89,0.00,,---,0.00,VWS V14.01,2013-10-23 12:04:00,
2013-10-23 07:09:00,30.9,28.3,29.98,North,0,6.0,7.0,90,0.00,,---,0.00,VWS V14.01,2013-10-23 12:09:00,
2013-10-23 07:14:00,31.0,28.1,29.99,NNE,13,1.0,3.0,89,0.00,,---,0.00,VWS V14.01,2013-10-23 12:14:00,
2013-10-23 07:19:00,31.0,28.1,29.99,NNE,13,2.0,5.0,89,0.00,,---,0.00,VWS V14.01,2013-10-23 12:19:00,
2013-10-23 07:24:00,31.0,28.1,29.99,NNE,23,3.0,6.0,89,0.00,,---,0.00,VWS V14.01,2013-10-23 12:24:00,
2013-10-23 07:29:00,31.0,28.1,29.99,NNE,16,3.0,6.0,89,0.00,,---,0.00,VWS V14.01,2013-10-23 12:29:00,
2013-10-23 07:34:00,31.0,28.1,29.99,NNE,23,2.0,5.0,89,0.00,,---,0.00,VWS V14.01,2013-10-23 12:34:00,
2013-10-23 07:39:00,31.0,28.4,29.99,NE,37,1.0,5.0,90,0.00,,---,0.00,VWS V14.01,2013-10-23 12:39:00,
2013-10-23 07:44:00,31.0,28.4,29.99,NNE,31,0.0,3.0,90,0.00,,---,0.00,VWS V14.01,2013-10-23 12:44:00,
2013-10-23 07:49:00,31.0,28.4,29.99,NNE,28,2.0,3.0,90,0.00,,---,0.00,VWS V14.01,2013-10-23 12:49:00,
2013-10-23 07:54:00,31.0,28.4,29.99,NNE,14,1.0,3.0,90,0.00,,---,0.00,VWS V14.01,2013-10-23 12:54:00,
2013-10-23 07:59:00,31.0,28.4,29.99,North,359,1.0,5.0,90,0.00,,---,0.00,VWS V14.01,2013-10-23 12:59:00,
2013-10-23 08:04:00,31.0,28.4,29.99,North,6,2.0,3.0,90,0.00,,---,0.00,VWS V14.01,2013-10-23 13:04:00,
2013-10-23 08:09:00,31.2,28.6,29.99,North,0,0.0,4.0,90,0.00,,---,0.00,VWS V14.01,2013-10-23 13:09:00,
2013-10-23 08:14:00,31.2,28.6,30.00,North,1,1.0,3.0,90,0.00,,---,0.00,VWS V14.01,2013-10-23 13:14:00,
2013-10-23 08:19:00,31.3,28.7,30.00,North,0,0.0,3.0,90,0.00,,---,0.00,VWS V14.01,2013-10-23 13:19:00,
2013-10-23 08:24:00,31.3,28.7,30.00,North,0,0.0,0.0,90,0.00,,---,0.00,VWS V14.01,2013-10-23 13:24:00,
2013-10-23 08:29:00,31.3,29.0,30.00,North,0,0.0,3.0,91,0.00,,---,0.00,VWS V14.01,2013-10-23 13:29:00,
2013-10-23 08:34:00,31.5,29.2,30.00,NNW,328,5.0,5.0,91,0.00,,---,0.00,VWS V14.01,2013-10-23 13:34:00,
2013-10-23 08:39:00,31.5,29.2,30.00,North,4,0.0,7.0,91,0.00,,---,0.00,VWS V14.01,2013-10-23 13:39:00,
2013-10-23 08:44:00,31.6,29.0,30.00,North,0,0.0,2.0,90,0.00,,---,0.00,VWS V14.01,2013-10-23 13:44:00,
2013-10-23 08:49:00,31.8,29.2,30.00,North,1,2.0,4.0,90,0.00,,---,0.00,VWS V14.01,2013-10-23 13:49:00,
2013-10-23 08:54:00,31.9,29.0,30.00,North,0,0.0,3.0,89,0.00,,---,0.00,VWS V14.01,2013-10-23 13:54:00,
2013-10-23 08:59:00,32.1,29.0,30.00,North,0,0.0,5.0,88,0.00,,---,0.00,VWS V14.01,2013-10-23 13:59:00,
2013-10-23 09:04:00,32.2,29.0,30.00,North,0,1.0,6.0,88,0.00,,---,0.00,VWS V14.01,2013-10-23 14:04:00,
2013-10-23 09:09:00,32.2,28.8,30.00,NNE,27,3.0,7.0,87,0.00,,---,0.00,VWS V14.01,2013-10-23 14:09:00,
2013-10-23 09:14:00,32.4,28.7,30.00,North,0,5.0,6.0,86,0.00,,---,0.00,VWS V14.01,2013-10-23 14:14:00,
2013-10-23 09:19:00,32.4,27.8,30.00,North,4,3.0,7.0,83,0.00,,---,0.00,VWS V14.01,2013-10-23 14:19:00,
2013-10-23 09:24:00,32.4,26.6,30.00,North,4,2.0,7.0,79,0.00,,---,0.00,VWS V14.01,2013-10-23 14:24:00,
2013-10-23 09:29:00,32.5,26.1,30.01,NE,45,2.0,7.0,77,0.00,,---,0.00,VWS V14.01,2013-10-23 14:29:00,
2013-10-23 09:34:00,32.7,25.7,30.01,North,1,3.0,8.0,75,0.00,,---,0.00,VWS V14.01,2013-10-23 14:34:00,
2013-10-23 09:39:00,32.8,25.8,30.01,NNE,31,0.0,8.0,75,0.00,,---,0.00,VWS V14.01,2013-10-23 14:39:00,
2013-10-23 09:44:00,32.8,25.1,30.01,NNE,20,5.0,5.0,73,0.00,,---,0.00,VWS V14.01,2013-10-23 14:44:00,
2013-10-23 09:49:00,32.8,24.1,30.01,NNE,14,1.0,8.0,70,0.00,,---,0.00,VWS V14.01,2013-10-23 14:49:00,
2013-10-23 09:54:00,32.8,23.1,30.01,NNE,17,7.0,10.0,67,0.00,,---,0.00,VWS V14.01,2013-10-23 14:54:00,
2013-10-23 09:59:00,32.9,23.2,30.01,NNE,30,2.0,10.0,67,0.00,,---,0.00,VWS V14.01,2013-10-23 14:59:00,
2013-10-23 10:04:00,32.9,22.1,30.01,North,11,2.0,10.0,64,0.00,,---,0.00,VWS V14.01,2013-10-23 15:04:00,
2013-10-23 10:09:00,32.9,22.1,30.01,North,7,11.0,11.0,64,0.00,,---,0.00,VWS V14.01,2013-10-23 15:09:00,
2013-10-23 10:14:00,32.9,21.3,30.01,North,359,3.0,10.0,62,0.00,,---,0.00,VWS V14.01,2013-10-23 15:14:00,
2013-10-23 10:19:00,33.1,21.5,30.01,NNW,347,10.0,10.0,62,0.00,,---,0.00,VWS V14.01,2013-10-23 15:19:00,
2013-10-23 10:24:00,33.2,21.2,30.01,North,11,8.0,11.0,61,0.00,,---,0.00,VWS V14.01,2013-10-23 15:24:00,
2013-10-23 10:29:00,33.2,20.8,30.01,NNE,18,6.0,11.0,60,0.00,,---,0.00,VWS V14.01,2013-10-23 15:29:00,
2013-10-23 10:34:00,33.4,21.0,30.02,NNE,16,4.0,8.0,60,0.00,,---,0.00,VWS V14.01,2013-10-23 15:34:00,
2013-10-23 10:39:00,33.5,20.7,30.02,NNE,13,3.0,9.0,59,0.00,,---,0.00,VWS V14.01,2013-10-23 15:39:00,
2013-10-23 10:44:00,33.7,20.9,30.02,NNE,23,7.0,10.0,59,0.00,,---,0.00,VWS V14.01,2013-10-23 15:44:00,
2013-10-23 10:49:00,33.5,19.9,30.01,NNE,14,3.0,12.0,57,0.00,,---,0.00,VWS V14.01,2013-10-23 15:49:00,
2013-10-23 10:54:00,33.5,20.3,30.01,North,4,1.0,10.0,58,0.00,,---,0.00,VWS V14.01,2013-10-23 15:54:00,
2013-10-23 10:59:00,33.5,20.3,30.01,North,0,1.0,11.0,58,0.00,,---,0.00,VWS V14.01,2013-10-23 15:59:00,
2013-10-23 11:04:00,33.5,20.7,30.01,NNE,27,7.0,10.0,59,0.00,,---,0.00,VWS V14.01,2013-10-23 16:04:00,
2013-10-23 11:09:00,33.4,20.6,30.01,North,356,10.0,11.0,59,0.00,,---,0.00,VWS V14.01,2013-10-23 16:09:00,
2013-10-23 11:14:00,33.5,20.7,30.01,NNW,342,5.0,11.0,59,0.00,,---,0.00,VWS V14.01,2013-10-23 16:14:00,
2013-10-23 11:19:00,33.7,21.3,30.02,North,0,5.0,11.0,60,0.00,,---,0.00,VWS V14.01,2013-10-23 16:19:00,
2013-10-23 11:24:00,33.7,21.7,30.02,NNE,27,6.0,10.0,61,0.00,,---,0.00,VWS V14.01,2013-10-23 16:24:00,
2013-10-23 11:29:00,33.5,21.9,30.02,North,0,3.0,10.0,62,0.00,,---,0.00,VWS V14.01,2013-10-23 16:29:00,
2013-10-23 11:34:00,33.7,22.1,30.02,NNE,14,7.0,10.0,62,0.00,,---,0.00,VWS V14.01,2013-10-23 16:34:00,
2013-10-23 11:39:00,33.5,21.5,30.02,NNE,13,7.0,11.0,61,0.00,,---,0.00,VWS V14.01,2013-10-23 16:39:00,
2013-10-23 11:44:00,33.5,21.5,30.02,North,0,6.0,12.0,61,0.00,,---,0.00,VWS V14.01,2013-10-23 16:44:00,
2013-10-23 11:49:00,33.5,21.1,30.02,North,359,1.0,12.0,60,0.00,,---,0.00,VWS V14.01,2013-10-23 16:49:00,
2013-10-23 11:54:00,33.7,20.5,30.02,North,7,5.0,11.0,58,0.00,,---,0.00,VWS V14.01,2013-10-23 16:54:00,
2013-10-23 11:59:00,33.8,21.0,30.02,NE,45,5.0,11.0,59,0.00,,---,0.00,VWS V14.01,2013-10-23 16:59:00,
2013-10-23 12:04:00,33.7,20.9,30.02,North,0,5.0,13.0,59,0.00,,---,0.00,VWS V14.01,2013-10-23 17:04:00,
2013-10-23 12:09:00,33.8,21.4,30.02,NNE,14,8.0,13.0,60,0.00,,---,0.00,VWS V14.01,2013-10-23 17:09:00,
2013-10-23 12:14:00,34.0,21.2,30.02,North,0,5.0,10.0,59,0.00,,---,0.00,VWS V14.01,2013-10-23 17:14:00,
2013-10-23 12:19:00,34.0,20.8,30.03,NNE,17,6.0,11.0,58,0.00,,---,0.00,VWS V14.01,2013-10-23 17:19:00,
2013-10-23 12:24:00,33.8,21.0,30.03,NNE,16,5.0,11.0,59,0.00,,---,0.00,VWS V14.01,2013-10-23 17:24:00,
2013-10-23 12:29:00,33.8,21.0,30.03,NNE,21,7.0,11.0,59,0.00,,---,0.00,VWS V14.01,2013-10-23 17:29:00,
2013-10-23 12:34:00,33.7,20.9,30.03,NE,41,14.0,14.0,59,0.00,,---,0.00,VWS V14.01,2013-10-23 17:34:00,
2013-10-23 12:39:00,33.8,21.0,30.03,NE,40,1.0,14.0,59,0.00,,---,0.00,VWS V14.01,2013-10-23 17:39:00,
2013-10-23 12:44:00,34.1,21.3,30.03,NNE,16,0.0,10.0,59,0.00,,---,0.00,VWS V14.01,2013-10-23 17:44:00,
2013-10-23 12:49:00,34.0,20.8,30.02,North,0,3.0,13.0,58,0.00,,---,0.00,VWS V14.01,2013-10-23 17:49:00,
2013-10-23 12:54:00,34.0,20.8,30.02,North,350,12.0,15.0,58,0.00,,---,0.00,VWS V14.01,2013-10-23 17:54:00,
2013-10-23 12:59:00,33.8,20.6,30.02,North,8,1.0,15.0,58,0.00,,---,0.00,VWS V14.01,2013-10-23 17:59:00,
2013-10-23 13:04:00,33.8,20.2,30.02,North,3,6.0,14.0,57,0.00,,---,0.00,VWS V14.01,2013-10-23 18:04:00,
2013-10-23 13:09:00,34.0,20.8,30.02,North,0,4.0,14.0,58,0.00,,---,0.00,VWS V14.01,2013-10-23 18:09:00,
2013-10-23 13:14:00,34.3,21.1,30.02,NNE,16,7.0,11.0,58,0.00,,---,0.00,VWS V14.01,2013-10-23 18:14:00,
2013-10-23 13:19:00,34.3,20.7,30.02,North,11,2.0,12.0,57,0.00,,---,0.00,VWS V14.01,2013-10-23 18:19:00,
2013-10-23 13:23:00,34.3,20.7,30.02,North,350,7.0,13.0,57,0.00,,---,0.00,VWS V14.01,2013-10-23 18:23:00,
2013-10-23 13:28:00,34.0,20.0,30.02,NNE,23,6.0,13.0,56,0.00,,---,0.00,VWS V14.01,2013-10-23 18:28:00,
2013-10-23 13:33:00,33.8,20.6,30.03,NNE,13,7.0,12.0,58,0.00,,---,0.00,VWS V14.01,2013-10-23 18:33:00,
2013-10-23 13:38:00,34.0,21.6,30.03,North,1,4.0,12.0,60,0.00,,---,0.00,VWS V14.01,2013-10-23 18:38:00,
2013-10-23 13:43:00,33.8,20.6,30.03,NE,35,5.0,11.0,58,0.00,,---,0.00,VWS V14.01,2013-10-23 18:43:00,
2013-10-23 13:48:00,34.0,20.4,30.02,NNE,16,6.0,14.0,57,0.00,,---,0.00,VWS V14.01,2013-10-23 18:48:00,
2013-10-23 13:53:00,34.0,20.4,30.02,North,6,2.0,13.0,57,0.00,,---,0.00,VWS V14.01,2013-10-23 18:53:00,
2013-10-23 13:58:00,34.1,20.5,30.02,North,0,7.0,13.0,57,0.00,,---,0.00,VWS V14.01,2013-10-23 18:58:00,
2013-10-23 14:03:00,33.8,20.2,30.02,North,10,7.0,12.0,57,0.00,,---,0.00,VWS V14.01,2013-10-23 19:03:00,
2013-10-23 14:08:00,33.7,20.1,30.02,WNW,299,13.0,13.0,57,0.00,,---,0.00,VWS V14.01,2013-10-23 19:08:00,
2013-10-23 14:13:00,34.1,20.9,30.02,North,0,7.0,7.0,58,0.00,,---,0.00,VWS V14.01,2013-10-23 19:13:00,
2013-10-23 14:18:00,34.3,20.7,30.03,North,0,5.0,12.0,57,0.00,,---,0.00,VWS V14.01,2013-10-23 19:18:00,
2013-10-23 14:23:00,34.1,20.5,30.03,North,3,7.0,12.0,57,0.00,,---,0.00,VWS V14.01,2013-10-23 19:23:00,
2013-10-23 14:28:00,34.3,20.7,30.03,NNW,333,6.0,12.0,57,0.00,,---,0.00,VWS V14.01,2013-10-23 19:28:00,
2013-10-23 14:33:00,34.6,21.0,30.03,North,0,6.0,9.0,57,0.00,,---,0.00,VWS V14.01,2013-10-23 19:33:00,
2013-10-23 14:38:00,35.0,20.5,30.03,NE,34,3.0,12.0,55,0.00,,---,0.00,VWS V14.01,2013-10-23 19:38:00,
2013-10-23 14:43:00,35.3,19.9,30.03,NNE,28,7.0,9.0,53,0.00,,---,0.00,VWS V14.01,2013-10-23 19:43:00,
2013-10-23 14:48:00,35.3,20.3,30.03,NNE,16,3.0,11.0,54,0.00,,---,0.00,VWS V14.01,2013-10-23 19:48:00,
2013-10-23 14:53:00,36.0,21.0,30.03,NNE,16,5.0,13.0,54,0.00,,---,0.00,VWS V14.01,2013-10-23 19:53:00,
2013-10-23 14:58:00,35.6,20.6,30.03,North,353,6.0,13.0,54,0.00,,---,0.00,VWS V14.01,2013-10-23 19:58:00,
2013-10-23 15:03:00,35.0,19.6,30.02,NNE,28,9.0,11.0,53,0.00,,---,0.00,VWS V14.01,2013-10-23 20:03:00,
2013-10-23 15:08:00,35.3,21.2,30.02,North,10,6.0,11.0,56,0.00,,---,0.00,VWS V14.01,2013-10-23 20:08:00,
2013-10-23 15:13:00,35.3,20.8,30.02,NE,47,5.0,8.0,55,0.00,,---,0.00,VWS V14.01,2013-10-23 20:13:00,
2013-10-23 15:18:00,35.3,21.2,30.03,NNE,16,9.0,9.0,56,0.00,,---,0.00,VWS V14.01,2013-10-23 20:18:00,
2013-10-23 15:23:00,35.3,20.8,30.03,NNE,21,3.0,7.0,55,0.00,,---,0.00,VWS V14.01,2013-10-23 20:23:00,
2013-10-23 15:28:00,35.5,21.4,30.03,NE,55,3.0,11.0,56,0.00,,---,0.00,VWS V14.01,2013-10-23 20:28:00,
2013-10-23 15:33:00,35.8,20.8,30.02,ENE,73,7.0,11.0,54,0.00,,---,0.00,VWS V14.01,2013-10-23 20:33:00,
2013-10-23 15:38:00,36.0,21.4,30.02,NE,35,3.0,11.0,55,0.00,,---,0.00,VWS V14.01,2013-10-23 20:38:00,
2013-10-23 15:43:00,36.3,21.3,30.02,ENE,64,3.0,6.0,54,0.00,,---,0.00,VWS V14.01,2013-10-23 20:43:00,
2013-10-23 15:48:00,36.2,21.6,30.02,NE,34,4.0,11.0,55,0.00,,---,0.00,VWS V14.01,2013-10-23 20:48:00,
2013-10-23 15:53:00,36.2,21.2,30.02,NE,42,2.0,6.0,54,0.00,,---,0.00,VWS V14.01,2013-10-23 20:53:00,
2013-10-23 15:58:00,36.3,20.8,30.02,NNE,30,7.0,8.0,53,0.00,,---,0.00,VWS V14.01,2013-10-23 20:58:00,
2013-10-23 16:03:00,36.2,21.6,30.03,ENE,61,3.0,7.0,55,0.00,,---,0.00,VWS V14.01,2013-10-23 21:03:00,
2013-10-23 16:08:00,36.0,21.0,30.03,ENE,62,5.0,7.0,54,0.00,,---,0.00,VWS V14.01,2013-10-23 21:08:00,
2013-10-23 16:13:00,35.9,20.9,30.03,ENE,59,3.0,7.0,54,0.00,,---,0.00,VWS V14.01,2013-10-23 21:13:00,
2013-10-23 16:18:00,35.9,21.3,30.03,NNE,13,6.0,8.0,55,0.00,,---,0.00,VWS V14.01,2013-10-23 21:18:00,
2013-10-23 16:23:00,36.2,21.6,30.03,North,8,6.0,7.0,55,0.00,,---,0.00,VWS V14.01,2013-10-23 21:23:00,
2013-10-23 16:28:00,36.2,20.7,30.03,NNE,14,4.0,7.0,53,0.00,,---,0.00,VWS V14.01,2013-10-23 21:28:00,
2013-10-23 16:33:00,36.2,20.7,30.03,NE,35,1.0,6.0,53,0.00,,---,0.00,VWS V14.01,2013-10-23 21:33:00,
2013-10-23 16:38:00,35.9,20.5,30.03,North,10,3.0,11.0,53,0.00,,---,0.00,VWS V14.01,2013-10-23 21:38:00,
2013-10-23 16:43:00,35.6,20.6,30.03,NNE,20,3.0,8.0,54,0.00,,---,0.00,VWS V14.01,2013-10-23 21:43:00,
2013-10-23 16:48:00,35.6,20.6,30.03,NNE,21,4.0,11.0,54,0.00,,---,0.00,VWS V14.01,2013-10-23 21:48:00,
2013-10-23 16:53:00,35.8,20.4,30.03,NE,55,5.0,8.0,53,0.00,,---,0.00,VWS V14.01,2013-10-23 21:53:00,
2013-10-23 16:58:00,35.9,20.5,30.03,NNE,18,3.0,8.0,53,0.00,,---,0.00,VWS V14.01,2013-10-23 21:58:00,
2013-10-23 17:03:00,35.9,20.5,30.03,North,10,2.0,7.0,53,0.00,,---,0.00,VWS V14.01,2013-10-23 22:03:00,
2013-10-23 17:08:00,35.9,20.9,30.03,NNE,13,6.0,9.0,54,0.00,,---,0.00,VWS V14.01,2013-10-23 22:08:00,
2013-10-23 17:13:00,35.6,20.6,30.03,NE,37,3.0,8.0,54,0.00,,---,0.00,VWS V14.01,2013-10-23 22:13:00,
2013-10-23 17:18:00,35.6,20.6,30.04,NNE,24,5.0,12.0,54,0.00,,---,0.00,VWS V14.01,2013-10-23 22:18:00,
2013-10-23 17:23:00,35.5,20.5,30.04,NNE,28,2.0,7.0,54,0.00,,---,0.00,VWS V14.01,2013-10-23 22:23:00,
2013-10-23 17:28:00,35.5,21.0,30.04,NNE,20,2.0,7.0,55,0.00,,---,0.00,VWS V14.01,2013-10-23 22:28:00,
2013-10-23 17:33:00,35.5,21.0,30.04,NE,40,3.0,11.0,55,0.00,,---,0.00,VWS V14.01,2013-10-23 22:33:00,
2013-10-23 17:38:00,35.5,20.5,30.04,NNE,17,3.0,11.0,54,0.00,,---,0.00,VWS V14.01,2013-10-23 22:38:00,
2013-10-23 17:43:00,35.3,20.8,30.04,NNE,16,5.0,11.0,55,0.00,,---,0.00,VWS V14.01,2013-10-23 22:43:00,
2013-10-23 17:48:00,35.3,20.8,30.04,North,6,6.0,11.0,55,0.00,,---,0.00,VWS V14.01,2013-10-23 22:48:00,
2013-10-23 17:53:00,35.2,21.1,30.04,NNE,25,4.0,7.0,56,0.00,,---,0.00,VWS V14.01,2013-10-23 22:53:00,
2013-10-23 17:58:00,35.2,21.1,30.04,NNE,25,3.0,12.0,56,0.00,,---,0.00,VWS V14.01,2013-10-23 22:58:00,
2013-10-23 18:03:00,35.0,20.5,30.05,NNE,28,3.0,10.0,55,0.00,,---,0.00,VWS V14.01,2013-10-23 23:03:00,
2013-10-23 18:08:00,35.0,20.9,30.05,NE,51,6.0,10.0,56,0.00,,---,0.00,VWS V14.01,2013-10-23 23:08:00,
2013-10-23 18:13:00,34.9,21.2,30.05,NNE,25,3.0,8.0,57,0.00,,---,0.00,VWS V14.01,2013-10-23 23:13:00,
2013-10-23 18:18:00,34.7,21.0,30.05,NNE,31,2.0,10.0,57,0.00,,---,0.00,VWS V14.01,2013-10-23 23:18:00,
2013-10-23 18:23:00,34.6,21.4,30.05,NE,45,4.0,11.0,58,0.00,,---,0.00,VWS V14.01,2013-10-23 23:23:00,
2013-10-23 18:28:00,34.6,21.4,30.05,North,8,7.0,11.0,58,0.00,,---,0.00,VWS V14.01,2013-10-23 23:28:00,
2013-10-23 18:33:00,34.4,21.2,30.06,NNE,20,6.0,8.0,58,0.00,,---,0.00,VWS V14.01,2013-10-23 23:33:00,
2013-10-23 18:38:00,34.3,21.1,30.06,NNE,30,5.0,10.0,58,0.00,,---,0.00,VWS V14.01,2013-10-23 23:38:00,
2013-10-23 18:43:00,34.3,21.1,30.06,NNE,13,3.0,7.0,58,0.00,,---,0.00,VWS V14.01,2013-10-23 23:43:00,
2013-10-23 18:48:00,34.1,20.9,30.06,ENE,62,5.0,10.0,58,0.00,,---,0.00,VWS V14.01,2013-10-23 23:48:00,
2013-10-23 18:53:00,34.1,21.3,30.06,NE,38,1.0,7.0,59,0.00,,---,0.00,VWS V14.01,2013-10-23 23:53:00,
2013-10-23 18:58:00,34.0,21.2,30.06,NE,42,5.0,7.0,59,0.00,,---,0.00,VWS V14.01,2013-10-23 23:58:00,
2013-10-23 19:03:00,34.0,21.6,30.06,NNE,32,3.0,7.0,60,0.00,,---,0.00,VWS V14.01,2013-10-24 00:03:00,
2013-10-23 19:08:00,34.0,21.6,30.06,ENE,69,4.0,7.0,60,0.00,,---,0.00,VWS V14.01,2013-10-24 00:08:00,
2013-10-23 19:13:00,34.0,21.6,30.06,NNE,28,1.0,3.0,60,0.00,,---,0.00,VWS V14.01,2013-10-24 00:13:00,
2013-10-23 19:18:00,33.8,21.4,30.06,NE,55,5.0,6.0,60,0.00,,---,0.00,VWS V14.01,2013-10-24 00:18:00,
2013-10-23 19:23:00,33.8,21.8,30.06,ENE,69,2.0,6.0,61,0.00,,---,0.00,VWS V14.01,2013-10-24 00:23:00,
2013-10-23 19:28:00,33.7,21.7,30.06,NNE,32,1.0,6.0,61,0.00,,---,0.00,VWS V14.01,2013-10-24 00:28:00,
2013-10-23 19:33:00,33.5,22.3,30.07,NE,48,2.0,3.0,63,0.00,,---,0.00,VWS V14.01,2013-10-24 00:33:00,
2013-10-23 19:38:00,33.5,22.3,30.07,NE,45,4.0,6.0,63,0.00,,---,0.00,VWS V14.01,2013-10-24 00:38:00,
2013-10-23 19:43:00,33.4,22.2,30.07,NE,47,3.0,3.0,63,0.00,,---,0.00,VWS V14.01,2013-10-24 00:43:00,
2013-10-23 19:48:00,33.2,22.4,30.07,NE,49,1.0,5.0,64,0.00,,---,0.00,VWS V14.01,2013-10-24 00:48:00,
2013-10-23 19:53:00,33.1,22.6,30.07,NE,52,0.0,2.0,65,0.00,,---,0.00,VWS V14.01,2013-10-24 00:53:00,
2013-10-23 19:58:00,32.9,22.8,30.07,NE,51,0.0,3.0,66,0.00,,---,0.00,VWS V14.01,2013-10-24 00:58:00,
2013-10-23 20:03:00,32.8,23.1,30.07,NE,52,0.0,1.0,67,0.00,,---,0.00,VWS V14.01,2013-10-24 01:03:00,
2013-10-23 20:08:00,32.7,23.0,30.07,NE,51,2.0,3.0,67,0.00,,---,0.00,VWS V14.01,2013-10-24 01:08:00,
2013-10-23 20:13:00,32.7,23.0,30.07,NE,49,0.0,1.0,67,0.00,,---,0.00,VWS V14.01,2013-10-24 01:13:00,
2013-10-23 20:18:00,32.5,23.1,30.07,NE,49,0.0,1.0,68,0.00,,---,0.00,VWS V14.01,2013-10-24 01:18:00,
2013-10-23 20:23:00,32.5,23.1,30.07,NE,49,0.0,2.0,68,0.00,,---,0.00,VWS V14.01,2013-10-24 01:23:00,
2013-10-23 20:28:00,32.4,23.0,30.07,NE,49,1.0,3.0,68,0.00,,---,0.00,VWS V14.01,2013-10-24 01:28:00,
2013-10-23 20:33:00,32.4,23.0,30.07,NE,48,0.0,1.0,68,0.00,,---,0.00,VWS V14.01,2013-10-24 01:33:00,
2013-10-23 20:37:00,32.4,23.0,30.07,NE,49,0.0,3.0,68,0.00,,---,0.00,VWS V14.01,2013-10-24 01:37:00,
2013-10-23 20:42:00,32.4,23.0,30.07,NE,47,1.0,3.0,68,0.00,,---,0.00,VWS V14.01,2013-10-24 01:42:00,
2013-10-23 20:47:00,32.2,22.8,30.08,NE,45,0.0,3.0,68,0.00,,---,0.00,VWS V14.01,2013-10-24 01:47:00,
2013-10-23 20:52:00,32.2,22.8,30.08,NE,44,0.0,2.0,68,0.00,,---,0.00,VWS V14.01,2013-10-24 01:52:00,
2013-10-23 20:57:00,32.2,22.8,30.08,NE,44,0.0,2.0,68,0.00,,---,0.00,VWS V14.01,2013-10-24 01:57:00,
2013-10-23 21:02:00,32.2,22.8,30.08,NE,41,1.0,3.0,68,0.00,,---,0.00,VWS V14.01,2013-10-24 02:02:00,
2013-10-23 21:07:00,32.4,22.7,30.08,NNE,28,2.0,5.0,67,0.00,,---,0.00,VWS V14.01,2013-10-24 02:07:00,
2013-10-23 21:12:00,32.5,22.8,30.08,North,0,1.0,6.0,67,0.00,,---,0.00,VWS V14.01,2013-10-24 02:12:00,
2013-10-23 21:17:00,32.7,22.2,30.08,North,0,3.0,6.0,65,0.00,,---,0.00,VWS V14.01,2013-10-24 02:17:00,
2013-10-23 21:22:00,32.7,21.5,30.08,NNE,25,7.0,9.0,63,0.00,,---,0.00,VWS V14.01,2013-10-24 02:22:00,
2013-10-23 21:27:00,32.8,20.9,30.08,NNE,18,6.0,9.0,61,0.00,,---,0.00,VWS V14.01,2013-10-24 02:27:00,
2013-10-23 21:32:00,32.5,20.2,30.08,North,8,6.0,11.0,60,0.00,,---,0.00,VWS V14.01,2013-10-24 02:32:00,
2013-10-23 21:37:00,32.4,20.5,30.08,North,0,11.0,11.0,61,0.00,,---,0.00,VWS V14.01,2013-10-24 02:37:00,
2013-10-23 21:42:00,32.2,20.3,30.08,NNE,25,6.0,9.0,61,0.00,,---,0.00,VWS V14.01,2013-10-24 02:42:00,
2013-10-23 21:47:00,32.2,20.7,30.08,NE,41,2.0,9.0,62,0.00,,---,0.00,VWS V14.01,2013-10-24 02:47:00,
2013-10-23 21:52:00,32.2,21.0,30.08,NNE,18,3.0,7.0,63,0.00,,---,0.00,VWS V14.01,2013-10-24 02:52:00,
2013-10-23 21:57:00,32.2,21.4,30.08,NE,37,7.0,9.0,64,0.00,,---,0.00,VWS V14.01,2013-10-24 02:57:00,
2013-10-23 22:02:00,32.1,21.3,30.08,NE,44,6.0,13.0,64,0.00,,---,0.00,VWS V14.01,2013-10-24 03:02:00,
2013-10-23 22:07:00,32.2,21.8,30.08,NNE,13,6.0,13.0,65,0.00,,---,0.00,VWS V14.01,2013-10-24 03:07:00,
2013-10-23 22:12:00,32.1,21.7,30.08,NNE,20,7.0,8.0,65,0.00,,---,0.00,VWS V14.01,2013-10-24 03:12:00,
2013-10-23 22:17:00,32.1,22.0,30.08,North,0,11.0,11.0,66,0.00,,---,0.00,VWS V14.01,2013-10-24 03:17:00,
2013-10-23 22:22:00,32.1,22.4,30.08,NNE,23,3.0,13.0,67,0.00,,---,0.00,VWS V14.01,2013-10-24 03:22:00,
2013-10-23 22:27:00,31.9,22.2,30.08,NE,35,7.0,13.0,67,0.00,,---,0.00,VWS V14.01,2013-10-24 03:27:00,
2013-10-23 22:32:00,31.9,22.5,30.09,NNE,28,5.0,8.0,68,0.00,,---,0.00,VWS V14.01,2013-10-24 03:32:00,
2013-10-23 22:37:00,31.8,22.8,30.09,NNE,13,7.0,8.0,69,0.00,,---,0.00,VWS V14.01,2013-10-24 03:37:00,
2013-10-23 22:42:00,31.8,22.8,30.09,NE,41,5.0,12.0,69,0.00,,---,0.00,VWS V14.01,2013-10-24 03:42:00,
2013-10-23 22:47:00,31.8,22.8,30.09,NE,38,3.0,12.0,69,0.00,,---,0.00,VWS V14.01,2013-10-24 03:47:00,
2013-10-23 22:52:00,31.8,22.8,30.09,NE,42,8.0,11.0,69,0.00,,---,0.00,VWS V14.01,2013-10-24 03:52:00,
2013-10-23 22:57:00,31.6,22.3,30.09,NE,38,5.0,12.0,68,0.00,,---,0.00,VWS V14.01,2013-10-24 03:57:00,
2013-10-23 23:01:00,31.5,22.2,30.10,NE,52,7.0,7.0,68,0.00,,---,0.00,VWS V14.01,2013-10-24 04:01:00,
2013-10-23 23:06:00,31.3,21.3,30.10,NNE,31,5.0,11.0,66,0.00,,---,0.00,VWS V14.01,2013-10-24 04:06:00,
2013-10-23 23:11:00,31.2,21.2,30.10,NE,38,5.0,6.0,66,0.00,,---,0.00,VWS V14.01,2013-10-24 04:11:00,
2013-10-23 23:16:00,30.9,20.9,30.10,NE,37,4.0,7.0,66,0.00,,---,0.00,VWS V14.01,2013-10-24 04:16:00,
2013-10-23 23:21:00,30.6,20.2,30.10,NE,38,7.0,7.0,65,0.00,,---,0.00,VWS V14.01,2013-10-24 04:21:00,
2013-10-23 23:26:00,30.6,20.6,30.10,ENE,62,3.0,9.0,66,0.00,,---,0.00,VWS V14.01,2013-10-24 04:26:00,
2013-10-23 23:31:00,30.6,20.2,30.10,NE,56,6.0,6.0,65,0.00,,---,0.00,VWS V14.01,2013-10-24 04:31:00,
2013-10-23 23:36:00,30.6,20.2,30.10,NE,45,2.0,7.0,65,0.00,,---,0.00,VWS V14.01,2013-10-24 04:36:00,
2013-10-23 23:41:00,30.7,20.0,30.10,NNE,24,2.0,4.0,64,0.00,,---,0.00,VWS V14.01,2013-10-24 04:41:00,
2013-10-23 23:46:00,30.7,19.6,30.11,NNE,16,4.0,7.0,63,0.00,,---,0.00,VWS V14.01,2013-10-24 04:46:00,
2013-10-23 23:51:00,30.7,20.0,30.11,NNE,31,6.0,6.0,64,0.00,,---,0.00,VWS V14.01,2013-10-24 04:51:00,
2013-10-23 23:56:00,30.7,20.0,30.11,NE,51,5.0,6.0,64,0.00,,---,0.00,VWS V14.01,2013-10-24 04:56:00,